Regional Weather Roundup
Issued by NWS

Home | Current Version | Previous Version | Text Only | Print | Product List | Glossary Off
Versions: 1 2 3 4 5 6 7 8 9 10 11 12 13 14 15 16 17 18 19 20 21 22 23 24 25 26 27 28 29 30 31 32 33 34 35 36 37 38 39 40 41 42 43 44 45 46 47 48 49 50

000
ASUS43 KLMK 030510
RWRKY
KENTUCKY REGIONAL WEATHER ROUNDUP
NATIONAL WEATHER SERVICE LOUISVILLE KY
100 AM EDT THU SEP 03 2015

NOTE "FAIR" INDICATES FEW OR NO CLOUDS BELOW 12,000 FEET
WITH NO SIGNIFICANT WEATHER AND/OR OBSTRUCTIONS TO VISIBILITY.

KYZ001>023-026-027-061>063-070>075-030600-
WESTERN AND SOUTH CENTRAL KENTUCKY

CITY           SKY/WX    TMP DP  RH WIND       PRES   REMARKS
PADUCAH        CLEAR     69  67  93 CALM      30.01S
HENDERSON      CLEAR     70  64  83 CALM      30.01S
OWENSBORO      CLEAR     73  69  87 CALM      30.03S
HOPKINSVILLE   CLEAR     73  67  82 N5        30.02F
BOWLING GREEN  CLEAR     72  67  84 CALM      30.04R
GLASGOW        CLEAR     68  68 100 CALM      30.04S
$$

KYZ024-025-028>034-038-045-046-053-030600-
NORTH CENTRAL KENTUCKY

CITY           SKY/WX    TMP DP  RH WIND       PRES   REMARKS
LOUISVILLE/SDF CLEAR     78  69  73 CALM      30.03R
LOUISVILLE/LOU CLEAR     75  70  84 CALM      30.04R
FORT KNOX      CLEAR     69  66  92 CALM      30.03S
$$

KYZ035>037-039>044-047>052-055>060-089>105-030600-
NORTHEAST KENTUCKY

CITY           SKY/WX    TMP DP  RH WIND       PRES   REMARKS
LEXINGTON      CLEAR     72  67  84 CALM      30.05F
COVINGTON      PTCLDY    73  66  78 CALM      30.04S
FRANKFORT      CLEAR     71  67  87 CALM      30.04S
$$

KYZ054-064>069-076>088-106>120-030600-
SOUTHEAST KENTUCKY

CITY           SKY/WX    TMP DP  RH WIND       PRES   REMARKS
JACKSON        CLEAR     73  66  78 CALM      30.07F
LONDON         PTCLDY    69  64  84 CALM      30.07S
SOMERSET       CLEAR     68  68 100 CALM      30.07S
MIDDLESBORO    MOCLDY    67  66  97 CALM      30.08S
MONTICELLO     PTCLDY    65  65 100 CALM      30.09S FOG
$$




USA.gov is the U.S. government's official web portal to all federal, state and local government web resources and services.